Hourly Weather Sidi Bu-l-Abbas

Today, 5 July, Sunday

Time Temperature Precipitation Wind Pressure Humidity
00:00 +26°C° 0 mm 1 mps 723 mmHg 43%
01:00 +24°C° 0 mm 0 mps 722 mmHg 44%
02:00 +23°C° 0 mm 0 mps 722 mmHg 44%
03:00 +23°C° 0 mm 0 mps 722 mmHg 45%
04:00 +23°C° 0 mm 0 mps 722 mmHg 44%
05:00 +26°C° 0 mm 1 mps 722 mmHg 42%
06:00 +28°C° 0 mm 1 mps 723 mmHg 39%
07:00 +30°C° 0 mm 2 mps 723 mmHg 32%
08:00 +33°C° 0 mm 3 mps 723 mmHg 25%
09:00 +35°C° 0 mm 4 mps 723 mmHg 19%
10:00 +37°C° 0 mm 4 mps 723 mmHg 17%
11:00 +38°C° 0 mm 4 mps 723 mmHg 14%
12:00 +40°C° 0 mm 4 mps 724 mmHg 12%
13:00 +41°C° 0 mm 5 mps 723 mmHg 13%
14:00 +41°C° 0 mm 6 mps 723 mmHg 13%
15:00 +41°C° 0 mm 6 mps 722 mmHg 14%
16:00 +39°C° 0 mm 6 mps 722 mmHg 16%
17:00 +38°C° 0 mm 6 mps 722 mmHg 19%
18:00 +35°C° 0 mm 6 mps 721 mmHg 22%
19:00 +33°C° 0 mm 4 mps 721 mmHg 25%
20:00 +30°C° 0 mm 3 mps 721 mmHg 29%
21:00 +28°C° 0 mm 1 mps 721 mmHg 32%
22:00 +27°C° 0 mm 1 mps 721 mmHg 33%
23:00 +25°C° 0 mm 0 mps 721 mmHg 34%

Tomorrow, 6 July, Monday

Time Temperature Precipitation Wind Pressure Humidity
00:00 +24°C° 0 mm 0 mps 721 mmHg 34%
01:00 +24°C° 0 mm 0 mps 721 mmHg 36%
02:00 +25°C° 0 mm 1 mps 721 mmHg 38%
03:00 +24°C° 0 mm 1 mps 720 mmHg 40%
04:00 +25°C° 0 mm 1 mps 720 mmHg 41%
05:00 +23°C° 0 mm 0 mps 720 mmHg 42%
06:00 +23°C° 0 mm 0 mps 721 mmHg 42%
07:00 +28°C° 0 mm 1 mps 721 mmHg 36%
08:00 +30°C° 0 mm 1 mps 721 mmHg 29%
09:00 +32°C° 0 mm 2 mps 722 mmHg 22%
10:00 +34°C° 0 mm 2 mps 722 mmHg 20%
11:00 +36°C° 0 mm 3 mps 722 mmHg 18%
12:00 +37°C° 0 mm 4 mps 722 mmHg 15%
13:00 +39°C° 0 mm 5 mps 721 mmHg 15%
14:00 +39°C° 0 mm 5 mps 721 mmHg 15%
15:00 +39°C° 0 mm 6 mps 721 mmHg 15%
16:00 +37°C° 0 mm 5 mps 721 mmHg 17%
17:00 +36°C° 0 mm 5 mps 720 mmHg 18%
18:00 +35°C° 0 mm 5 mps 720 mmHg 20%
19:00 +33°C° 0 mm 3 mps 720 mmHg 25%
20:00 +30°C° 0 mm 2 mps 721 mmHg 30%
21:00 +28°C° 0 mm 1 mps 721 mmHg 35%
22:00 +27°C° 0 mm 1 mps 721 mmHg 37%
23:00 +26°C° 0 mm 1 mps 720 mmHg 39%

Day after tomorrow, 7 July, Tuesday

Time Temperature Precipitation Wind Pressure Humidity
00:00 +26°C° 0 mm 1 mps 720 mmHg 42%
01:00 +25°C° 0 mm 1 mps 720 mmHg 43%
02:00 +25°C° 0 mm 1 mps 720 mmHg 44%
03:00 +24°C° 0 mm 1 mps 720 mmHg 46%
04:00 +25°C° 0 mm 1 mps 720 mmHg 46%
05:00 +23°C° 0 mm 0 mps 720 mmHg 47%
06:00 +24°C° 0 mm 0 mps 720 mmHg 47%
07:00 +26°C° 0 mm 0 mps 721 mmHg 40%
08:00 +28°C° 0 mm 0 mps 721 mmHg 32%
09:00 +31°C° 0 mm 0 mps 722 mmHg 24%
10:00 +34°C° 0 mm 1 mps 722 mmHg 22%
11:00 +37°C° 0 mm 2 mps 722 mmHg 19%
12:00 +39°C° 0 mm 3 mps 721 mmHg 17%
13:00 +40°C° 0 mm 4 mps 721 mmHg 17%
14:00 +40°C° 0 mm 5 mps 721 mmHg 17%
15:00 +41°C° 0 mm 5 mps 721 mmHg 17%
16:00 +40°C° 0 mm 5 mps 721 mmHg 18%
17:00 +38°C° 0 mm 4 mps 720 mmHg 19%
18:00 +37°C° 0 mm 3 mps 720 mmHg 20%
19:00 +35°C° 0 mm 2 mps 720 mmHg 26%
20:00 +32°C° 0 mm 1 mps 721 mmHg 31%
21:00 +29°C° 0 mm 1 mps 721 mmHg 37%
22:00 +29°C° 0 mm 1 mps 721 mmHg 38%
23:00 +28°C° 0 mm 1 mps 720 mmHg 38%

8 July, Wednesday

Time Temperature Precipitation Wind Pressure Humidity
00:00 +28°C° 0 mm 1 mps 720 mmHg 38%
01:00 +27°C° 0 mm 1 mps 720 mmHg 39%
02:00 +25°C° 0 mm 0 mps 720 mmHg 40%
03:00 +24°C° 0 mm 0 mps 720 mmHg 41%
04:00 +25°C° 0 mm 0 mps 720 mmHg 39%
05:00 +28°C° 0 mm 1 mps 720 mmHg 38%
06:00 +28°C° 0 mm 1 mps 720 mmHg 36%
07:00 +31°C° 0 mm 1 mps 721 mmHg 30%
08:00 +33°C° 0 mm 1 mps 721 mmHg 24%
09:00 +36°C° 0 mm 1 mps 722 mmHg 18%
10:00 +38°C° 0 mm 2 mps 722 mmHg 16%
11:00 +40°C° 0 mm 2 mps 722 mmHg 14%
12:00 +42°C° 0 mm 3 mps 722 mmHg 13%
13:00 +42°C° 0 mm 4 mps 721 mmHg 13%
14:00 +43°C° 0 mm 5 mps 721 mmHg 13%
15:00 +44°C° 0 mm 6 mps 721 mmHg 13%
16:00 +42°C° 0 mm 6 mps 720 mmHg 15%
17:00 +41°C° 0 mm 5 mps 720 mmHg 17%
18:00 +39°C° 0 mm 5 mps 720 mmHg 19%
19:00 +36°C° 0 mm 4 mps 720 mmHg 23%
20:00 +34°C° 0 mm 3 mps 720 mmHg 26%
21:00 +30°C° 0 mm 2 mps 720 mmHg 30%
22:00 +29°C° 0 mm 2 mps 720 mmHg 32%
23:00 +29°C° 0 mm 2 mps 720 mmHg 34%

9 July, Thursday

Time Temperature Precipitation Wind Pressure Humidity
00:00 +28°C° 0 mm 2 mps 719 mmHg 37%
01:00 +28°C° 0 mm 2 mps 719 mmHg 35%
02:00 +28°C° 0 mm 2 mps 719 mmHg 33%
03:00 +28°C° 0 mm 2 mps 718 mmHg 32%
04:00 +28°C° 0 mm 2 mps 719 mmHg 35%
05:00 +27°C° 0 mm 2 mps 719 mmHg 38%
06:00 +27°C° 0 mm 2 mps 719 mmHg 42%
07:00 +29°C° 0 mm 2 mps 719 mmHg 40%
08:00 +31°C° 0 mm 2 mps 720 mmHg 39%
09:00 +33°C° 0 mm 3 mps 720 mmHg 37%
10:00 +35°C° 0 mm 3 mps 720 mmHg 33%
11:00 +37°C° 0 mm 4 mps 720 mmHg 30%
12:00 +39°C° 0 mm 5 mps 720 mmHg 26%
13:00 +39°C° 0 mm 5 mps 720 mmHg 28%
14:00 +37°C° 0 mm 5 mps 719 mmHg 31%
15:00 +36°C° 0 mm 5 mps 719 mmHg 33%
16:00 +35°C° 0 mm 5 mps 719 mmHg 37%
17:00 +34°C° 0 mm 4 mps 718 mmHg 41%
18:00 +31°C° 0 mm 3 mps 718 mmHg 45%
19:00 +30°C° 0 mm 3 mps 718 mmHg 52%
20:00 +28°C° 0 mm 3 mps 719 mmHg 59%
21:00 +27°C° 0 mm 3 mps 719 mmHg 67%
22:00 +26°C° 0 mm 2 mps 719 mmHg 68%
23:00 +26°C° 0 mm 2 mps 718 mmHg 70%

10 July, Friday

Time Temperature Precipitation Wind Pressure Humidity
00:00 +26°C° 0 mm 2 mps 718 mmHg 71%
01:00 +25°C° 0 mm 3 mps 718 mmHg 77%
02:00 +23°C° 0 mm 4 mps 718 mmHg 83%
03:00 +22°C° 0 mm 5 mps 718 mmHg 89%
04:00 +22°C° 0 mm 4 mps 718 mmHg 85%
05:00 +23°C° 0 mm 2 mps 718 mmHg 82%
06:00 +24°C° 0 mm 1 mps 718 mmHg 79%
07:00 +25°C° 0 mm 1 mps 719 mmHg 70%
08:00 +27°C° 0 mm 1 mps 719 mmHg 60%
09:00 +29°C° 0 mm 2 mps 720 mmHg 50%
10:00 +31°C° 0 mm 2 mps 719 mmHg 45%
11:00 +34°C° 0 mm 3 mps 719 mmHg 40%
12:00 +35°C° 0 mm 4 mps 719 mmHg 35%
13:00 +35°C° 0 mm 5 mps 719 mmHg 38%
14:00 +35°C° 0 mm 5 mps 719 mmHg 40%
15:00 +34°C° 0 mm 6 mps 718 mmHg 43%
16:00 +33°C° 0 mm 5 mps 718 mmHg 45%
17:00 +32°C° 0 mm 4 mps 718 mmHg 47%
18:00 +30°C° 0 mm 3 mps 718 mmHg 49%
19:00 +29°C° 0 mm 2 mps 718 mmHg 53%
20:00 +28°C° 0 mm 2 mps 719 mmHg 58%
21:00 +27°C° 0 mm 1 mps 719 mmHg 62%
22:00 +27°C° 0 mm 1 mps 719 mmHg 63%
23:00 +26°C° 0 mm 1 mps 719 mmHg 65%
Show more